Flag for Oman Weather past 2 weeks in Salalah, Oman

Now
79 °F

Cloudy.


Feels Like: 82 °F
Forecast: 80 / 86 °F
Wind: 6 mph from Southeast

Location: Salalah Airport

Current Time: Jul 31, 2014 at 6:57:43 PM

Latest Report: Jul 31, 2014 at 5:50 PM


Visibility: 2 mi

Pressure: 29.59 "Hg

Humidity: 84%

Dew point: 73 °F

Location of SalalahLocation

Historic Weather in Salalah — Graph

°F

Salalah temperature yesterday

Maximum temperature yesterday: 77 °F (at 9:50 AM)
Minimum temperature yesterday: 75 °F (at 12:50 AM)
Average temperature yesterday: 76 °F

Past Weeks' High & Low Weather Summary

 TemperatureHumidityPressure
High86 °F (Jul 17, 12:50 PM)94% (Jul 17, 11:50 PM)29.77 "Hg (Jul 17, 11:50 PM)
Low75 °F (Jul 20, 1:50 AM)66% (Jul 17, 12:50 PM)29.50 "Hg (Jul 17, 3:50 PM)
Average77 °F90%29.64 "Hg
* Reported Jul 16 5:50 PM — Jul 31 5:50 PM, Salalah, Weather by CustomWeather, © 2014

Note: Actual official high and low records may vary slightly from our data, if they occured in-between our weather recording intervals... More about our weather records

Advertising

Salalah weather history for previous 24 hours

 ConditionsComfort  
Time TempWeatherWind HumidityBarometerVisibility
5:50 PM
Jul 31
79 °FCloudy.6 mph84%29.59 "Hg2 mi
4:50 PM79 °FWarm.6 mph84%29.59 "Hg4 mi
3:50 PM79 °FWarm.9 mph84%29.59 "Hg4 mi
2:50 PM81 °FCloudy.8 mph84%29.62 "Hg3 mi
1:50 PM79 °FCloudy.7 mph84%29.65 "Hg3 mi
12:50 PM79 °FCloudy.9 mph84%29.65 "Hg2 mi
11:50 AM77 °FCloudy.10 mph94%29.68 "Hg2 mi
10:50 AM77 °FDrizzle. Cloudy.7 mph94%29.68 "Hg1 mi
9:50 AM77 °FWarm.5 mph94%29.68 "Hg1 mi
8:50 AM77 °FWarm.3 mph89%29.68 "Hg1 mi
7:50 AM75 °FFog.3 mph94%29.68 "Hg1 mi
6:50 AM75 °FMild.5 mph94%29.65 "Hg2 mi
5:50 AM75 °FMild.5 mph94%29.65 "Hg1 mi
4:50 AM75 °FMild.6 mph94%29.65 "Hg2 mi
3:50 AM75 °FDrizzle. Overcast.6 mph94%29.65 "Hg2 mi
2:50 AM75 °FDrizzle. Overcast.5 mph94%29.65 "Hg1 mi
1:50 AM75 °FMild.3 mph94%29.65 "Hg2 mi
12:50 AM75 °FDrizzle. Overcast.3 mph94%29.65 "Hg1 mi
11:50 PM
Jul 30
75 °FDrizzle. Overcast.5 mph94%29.68 "Hg1 mi
10:50 PM75 °FMild.6 mph94%29.68 "Hg1 mi
9:50 PM77 °FWarm.3 mph94%29.68 "Hg1 mi
7:50 PM77 °FDrizzle. Overcast.5 mph94%29.62 "Hg1 mi
6:50 PM77 °FDrizzle. Cloudy.6 mph89%29.62 "Hg1 mi
Weather by CustomWeather, © 2014

See weather overviewHow to use our weather pages